FBMN

Details ICAO FBMN (MUB)
Name MAUN
Region Botswana
Timezone Africa/Gaborone (UTC+2.0)
Plans Departing 24
Arriving 31
Stats Elevation 3,093 ft / 943 m (AMSL)
Location -19.972564° 23.431085°
Runways 1
Magnetic Variation 9.240° W
Sunrise 2018-05-26 04:53:10 UTC / 2018-05-26 06:53:10 Local
Sunset 2018-05-26 15:56:20 UTC / 2018-05-26 17:56:20 Local
Advertisement - Login to hide

Runways

ID Width Length Bearing (true) Bearing (mag) Surface Threshold Offset Overrun Length
08 98 ft / 30 m 6,520 ft / 1,987 m 65.89° 75.13° Asphalt 0 ft / 0 m 650 ft / 198 m
26 98 ft / 30 m 6,520 ft / 1,987 m 245.88° 255.12° Asphalt 0 ft / 0 m 200 ft / 61 m

Map

Weather


0- 5 10 15 20 25 30 35+ Temperature / ° C

Clouds and Precipitation
Forecast for 2018-05-26 06:00 UTC. Updated 5 hours ago

Ground ~20,000 ft ~40,000 ft Winds

METAR

FBMN 261000Z 07008KT CAVOK 28/07 Q1021

TAF

Not found

Frequencies

Ground 121.90 MHz GND
Tower 118.70 MHz AFIS
Tower 118.70 MHz TWR
Approach 126.00 MHz APP
Warning: Do not use this data for real-world aviation or navigation. No guarantee of current accuracy is given.